[[{"header":{"parameterUnit":"m.s-1","parameterCategory":1,"la1":30.2991,"la2":30.254,"lo1":-89.0895,"lo2":-89.0444,"dy":0.0017,"dx":0.0017,"nx":28,"ny":28,"refTime":"2023-04-30T15:00:00:Z","depth":0,"parameterNumber":2,"parameterNumberName":"U-component_of_WINDS"},"data":[0,0,0,0,0,0,0,0,0,0,0,0,0,0,0,0,0,0,0,0,0,0,0,0,0,0,0,0,0,0,0,0,0,0,0,0,0,0,0,0,0,0,0,0,0,0,0,0,0,0,0,0,0,0,0,0,0,0,5.6942,5.6943,0,5.7039,5.704,5.7041,5.702,5.7018,5.7017,5.7015,5.7115,5.7119,5.7123,0,0,0,0,0,0,0,0,0,0,0,0,0,5.6744,5.6748,5.6942,5.6944,5.6945,5.7038,5.704,5.7041,5.7021,5.7018,5.7016,5.7014,5.7113,5.7118,5.7124,0,0,0,0,0,0,0,0,0,0,0,0,0,5.6834,5.6749,5.6942,5.6946,5.6947,5.7038,5.704,5.7041,5.7021,5.7018,5.7016,5.7013,5.7112,5.7118,5.7124,5.7218,0,0,5.7144,5.7147,0,0,0,0,0,0,0,0,5.6829,5.6842,5.6944,5.6946,5.6947,5.7015,5.7006,5.7101,5.7022,5.6993,5.7015,5.7012,5.7084,5.7092,5.7116,5.7223,5.7227,5.7145,5.7149,5.7151,5.7153,0,0,0,0,0,0,0,5.6823,5.6837,5.698,5.6946,5.6948,5.6944,5.6953,5.7024,5.7052,5.6995,5.6994,5.7006,5.7084,5.711,5.7118,5.7228,5.7144,5.715,5.7154,5.7157,5.742,5.7423,0,0,0,0,0,0,5.6815,5.6832,5.6977,5.6983,5.688,5.6949,5.696,5.6996,5.7051,5.7057,5.7008,5.7004,5.71,5.7111,5.7122,5.7238,5.7151,5.7157,5.7161,5.7417,5.7421,5.7424,0,0,0,0,0,0,5.6811,5.6828,5.6973,5.6908,5.6926,5.6956,5.6996,5.6999,5.7025,5.7061,5.7066,5.7029,5.7099,5.7113,5.7195,5.7241,5.716,5.7166,5.7414,5.7419,5.7423,5.7469,0,0,0,0,0,0,5.6805,5.6827,5.6862,5.6908,5.6929,5.7044,5.6998,5.7003,5.7036,5.7032,5.7082,5.7088,5.7098,5.7185,5.7201,5.7248,5.7171,5.741,5.7416,5.7421,5.7464,5.7475,5.7484,0,0,0,0,0,5.6798,5.687,5.6863,5.6881,5.6974,5.7047,5.7059,5.7068,5.704,5.7076,5.71,5.7086,5.7233,5.7194,5.7212,5.7261,5.7407,5.7414,5.7421,5.7459,5.7472,5.7484,0,0,0,0,0,0,5.6828,5.6876,5.6869,5.6959,5.6999,5.7043,5.7089,5.7082,5.7131,5.7126,5.7135,5.7147,5.7231,5.7254,5.721,5.7357,5.7316,5.7327,5.7339,5.7352,5.7362,5.7356,5.7177,0,0,0,0,0,5.6845,5.6899,5.6939,5.7014,5.7035,5.7059,5.7091,5.7095,5.7137,5.7154,5.7183,5.7225,5.7281,5.7318,5.7371,5.7466,5.7479,5.751,5.752,5.7528,5.7538,5.7594,5.7609,5.7448,5.7447,5.7447,0,0,5.688,5.6914,5.6947,5.7021,5.7053,5.7111,5.7073,5.7135,5.7179,5.7163,5.7243,5.7267,5.7314,5.7405,5.7446,5.7427,5.7585,5.7537,5.7544,5.7549,5.7603,5.7618,5.7631,5.7452,5.7451,5.7451,0,0,5.6975,5.7005,5.7072,5.7105,5.7154,5.7169,5.7186,5.7232,5.7247,5.7327,5.7318,5.737,5.7466,5.7501,5.7531,5.7643,5.7634,5.766,5.7714,5.7769,5.7781,5.7793,5.7835,5.785,5.7669,5.7669,5.7669,0,5.7013,5.71,5.7108,5.7172,5.7206,5.7195,5.7264,5.7296,5.7359,5.7384,5.7361,5.7482,5.7513,5.7614,5.7641,5.7665,5.7686,5.7655,5.7779,5.779,5.7801,5.7842,5.7857,5.7672,5.7672,5.7672,5.7672,0,5.7146,5.7206,5.7254,5.7317,5.7356,5.7422,5.7442,5.7481,5.7482,5.7501,5.7585,5.7622,5.7684,5.7708,5.7709,5.7809,5.7796,5.7776,5.7735,5.7819,5.7858,5.7873,5.7677,5.7676,5.7675,5.7674,0,0,5.7262,5.7329,5.7347,5.7377,5.7431,5.7478,5.7545,5.7606,5.764,5.7685,5.7743,5.7825,5.7807,5.7842,5.7847,5.7895,5.7984,5.7869,5.7871,5.7891,5.81,5.8117,5.8134,5.7978,5.7981,5.7983,5.8097,0,5.7363,5.7481,5.7492,5.7598,5.7655,5.7647,5.7706,5.7746,5.7766,5.7818,5.784,5.7899,5.787,5.7892,5.7938,5.7964,5.8027,5.7955,5.8034,5.8037,5.8024,5.8154,5.8171,5.8277,5.8112,5.8115,5.8116,0,5.7497,5.7547,5.766,5.7708,5.7733,5.7785,5.7843,5.7893,5.7939,5.7951,5.7991,5.799,5.8061,5.8017,5.8117,5.8068,5.8101,5.8119,5.8123,5.8132,5.8083,5.8169,5.831,5.8327,5.814,5.8138,5.8136,0,5.7574,5.7669,5.7749,5.7775,5.7832,5.787,5.7896,5.794,5.7977,5.8028,5.8052,5.8111,5.8143,5.819,5.8206,5.8172,5.8306,5.8262,5.8319,5.8319,5.8349,5.8347,5.85,5.8367,5.8366,5.8366,5.8366,0,5.7688,5.7758,5.7785,5.7835,5.7913,5.7925,5.8003,5.8027,5.8067,5.8122,5.8118,5.817,5.8188,5.8244,5.8257,5.8339,5.8353,5.8366,5.8369,5.8368,5.8366,5.8391,5.8384,5.837,5.8369,5.8369,5.8368,0,5.7787,5.7808,5.7896,5.7944,5.7958,5.8014,5.8056,5.8105,5.8124,5.8194,5.8212,5.8243,5.8309,5.8329,5.8408,5.8417,5.8514,5.8509,5.8499,5.85,5.8556,5.8552,5.8731,5.8757,5.8605,5.8606,5.8607,0,5.786,5.7913,5.7968,5.8005,5.8033,5.8092,5.813,5.8144,5.8184,5.8243,5.8285,5.835,5.8403,5.8509,5.854,5.8601,5.8599,5.8658,5.8608,5.8606,5.8603,5.8601,5.8608,5.8668,5.8669,5.8671,5.8672,0,5.7987,5.7995,5.805,5.8109,5.8155,5.8202,5.8248,5.8278,5.83,5.8345,5.8413,5.8454,5.8536,5.8601,5.8664,5.8692,5.8687,5.8687,5.8704,5.8704,5.8697,5.8704,5.8527,5.8683,5.8682,5.8681,5.8681,5.868,5.8077,5.8125,5.8172,5.8234,5.827,5.8313,5.8362,5.8389,5.8445,5.8513,5.8518,5.8591,5.8639,5.8723,5.8755,5.8814,5.8797,5.8821,5.8827,5.8833,5.8839,5.8686,5.8825,5.8824,5.8824,5.8824,5.8824,0,5.8206,5.8236,5.8293,5.8357,5.8407,5.8397,5.8447,5.849,5.8555,5.8599,5.8652,5.8731,5.8795,5.8831,5.8896,5.8937,5.8936,5.8953,5.8952,5.8959,5.8849,5.8829,5.8953,5.8953,5.8953,5.8953,5.8953,5.8953,5.8279,5.8362,5.8376,5.8477,5.8507,5.8579,5.8609,5.865,5.8686,5.8774,5.8828,5.8851,5.8893,5.8961,5.9021,5.903,5.9055,5.9075,5.9082,5.8979,5.8966,5.8954,5.8935,5.9079,5.9079,5.9188,5.9189,5.9189]},{"header":{"parameterUnit":"m.s-1","parameterCategory":1,"la1":30.2991,"la2":30.254,"lo1":-89.0895,"lo2":-89.0444,"dy":0.0017,"dx":0.0017,"nx":28,"ny":28,"refTime":"2023-04-30T15:00:00:Z","depth":0,"parameterNumber":3,"parameterNumberName":"V-component_of_WINDS"},"data":[0,0,0,0,0,0,0,0,0,0,0,0,0,0,0,0,0,0,0,0,0,0,0,0,0,0,0,0,0,0,0,0,0,0,0,0,0,0,0,0,0,0,0,0,0,0,0,0,0,0,0,0,0,0,0,0,0,0,-1.0829,-1.0829,0,-1.0768,-1.0767,-1.0767,-1.0835,-1.0838,-1.084,-1.0843,-1.0772,-1.0768,-1.0763,0,0,0,0,0,0,0,0,0,0,0,0,0,-1.0998,-1.0995,-1.0829,-1.0829,-1.0828,-1.0768,-1.0767,-1.0767,-1.0835,-1.0838,-1.0841,-1.0844,-1.0773,-1.0768,-1.0763,0,0,0,0,0,0,0,0,0,0,0,0,0,-1.0929,-1.0994,-1.0829,-1.0855,-1.0856,-1.0768,-1.0767,-1.0766,-1.0834,-1.0838,-1.0842,-1.0845,-1.0775,-1.0769,-1.0762,-1.0644,0,0,-1.0743,-1.074,0,0,0,0,0,0,0,0,-1.0933,-1.0923,-1.0852,-1.0853,-1.0855,-1.0813,-1.0801,-1.0725,-1.0833,-1.0842,-1.0843,-1.0847,-1.0782,-1.0775,-1.0755,-1.0641,-1.0637,-1.0742,-1.0738,-1.0735,-1.0733,0,0,0,0,0,0,0,-1.0938,-1.0926,-1.0805,-1.0851,-1.0852,-1.0867,-1.0861,-1.0787,-1.079,-1.0842,-1.0847,-1.0839,-1.0783,-1.0761,-1.0754,-1.0636,-1.0742,-1.0736,-1.0732,-1.073,-1.0422,-1.0418,0,0,0,0,0,0,-1.0941,-1.093,-1.0807,-1.0803,-1.0905,-1.0861,-1.0855,-1.0822,-1.0792,-1.0791,-1.0836,-1.0842,-1.077,-1.0761,-1.0751,-1.0611,-1.0735,-1.0729,-1.0725,-1.0426,-1.0421,-1.0416,0,0,0,0,0,0,-1.0944,-1.0929,-1.0809,-1.0868,-1.0854,-1.0854,-1.0817,-1.0819,-1.0797,-1.0787,-1.0787,-1.0812,-1.0773,-1.0761,-1.0671,-1.0609,-1.0726,-1.072,-1.0431,-1.0425,-1.0419,-1.0328,0,0,0,0,0,0,-1.0949,-1.093,-1.0887,-1.0866,-1.085,-1.0731,-1.0813,-1.0815,-1.0787,-1.0795,-1.0765,-1.0764,-1.0775,-1.068,-1.0664,-1.0602,-1.0715,-1.0437,-1.0428,-1.0421,-1.0337,-1.032,-1.0305,0,0,0,0,0,-1.0955,-1.0862,-1.0884,-1.0869,-1.0796,-1.0728,-1.0718,-1.0735,-1.0781,-1.0737,-1.073,-1.0765,-1.0619,-1.067,-1.0653,-1.0588,-1.0441,-1.0431,-1.0421,-1.0344,-1.0323,-1.0305,0,0,0,0,0,0,-1.0871,-1.0859,-1.0884,-1.0782,-1.0756,-1.074,-1.0684,-1.0712,-1.067,-1.0679,-1.0699,-1.0692,-1.0596,-1.0584,-1.0641,-1.0472,-1.0537,-1.0523,-1.0484,-1.0464,-1.0448,-1.0453,-1.071,0,0,0,0,0,-1.0842,-1.079,-1.0781,-1.0692,-1.0678,-1.0683,-1.0654,-1.0669,-1.0641,-1.063,-1.0617,-1.0586,-1.0534,-1.0498,-1.0449,-1.0336,-1.033,-1.0283,-1.0267,-1.0254,-1.0241,-1.018,-1.0159,-1.0385,-1.0385,-1.0385,0,0,-1.0779,-1.0766,-1.0731,-1.0675,-1.0657,-1.06,-1.0673,-1.0609,-1.0567,-1.0619,-1.0534,-1.0524,-1.0491,-1.0389,-1.0343,-1.0375,-1.0178,-1.0242,-1.0231,-1.0226,-1.0168,-1.0147,-1.0128,-1.0378,-1.0379,-1.038,0,0,-1.0636,-1.0621,-1.0546,-1.0527,-1.0499,-1.0503,-1.0484,-1.0464,-1.046,-1.0376,-1.0414,-1.0362,-1.0271,-1.0247,-1.0222,-1.0071,-1.0101,-1.0054,-0.997,-0.9911,-0.9893,-0.9877,-0.9822,-0.9803,-1.0042,-1.0042,-1.0042,0,-1.056,-1.0479,-1.0503,-1.0437,-1.0411,-1.0459,-1.0381,-1.036,-1.0316,-1.0296,-1.0333,-1.0221,-1.0202,-1.0095,-1.0059,-1.0037,-1.0016,-1.0057,-0.9894,-0.9878,-0.9864,-0.9812,-0.9792,-1.0036,-1.0037,-1.0038,-1.0038,0,-1.0388,-1.0331,-1.0273,-1.0233,-1.02,-1.0128,-1.0139,-1.0102,-1.0121,-1.0121,-1.0034,-1.0014,-0.9961,-0.9937,-0.9953,-0.9832,-0.9853,-0.9892,-0.9957,-0.9837,-0.9788,-0.9769,-1.0029,-1.0031,-1.0032,-1.0034,0,0,-1.0189,-1.0165,-1.0143,-1.0125,-1.0098,-1.0053,-0.9984,-0.9936,-0.9904,-0.9872,-0.9813,-0.9736,-0.9772,-0.9744,-0.9758,-0.9705,-0.9587,-0.9751,-0.975,-0.972,-0.9451,-0.9421,-0.9398,-0.9607,-0.9603,-0.96,-0.9453,0,-1.0045,-0.9928,-0.9947,-0.9832,-0.9779,-0.9825,-0.9764,-0.9739,-0.9737,-0.969,-0.9687,-0.9632,-0.9684,-0.9668,-0.9618,-0.9612,-0.9533,-0.9623,-0.955,-0.9547,-0.9556,-0.9373,-0.9341,-0.9203,-0.9435,-0.9432,-0.9429,0,-0.9861,-0.9826,-0.9707,-0.9689,-0.9668,-0.9613,-0.9571,-0.9526,-0.9499,-0.9501,-0.9471,-0.9495,-0.9423,-0.9491,-0.9392,-0.9453,-0.9425,-0.9417,-0.9412,-0.9405,-0.948,-0.936,-0.916,-0.9139,-0.94,-0.9402,-0.9404,0,-0.9728,-0.965,-0.9569,-0.9553,-0.953,-0.9491,-0.9479,-0.9456,-0.9426,-0.9388,-0.9369,-0.9322,-0.9296,-0.9259,-0.9269,-0.9317,-0.9167,-0.9236,-0.9165,-0.9164,-0.913,-0.9132,-0.8922,-0.9113,-0.9113,-0.9114,-0.9114,0,-0.9565,-0.949,-0.9509,-0.9459,-0.9376,-0.9398,-0.9314,-0.9308,-0.9287,-0.9235,-0.9271,-0.922,-0.9237,-0.9187,-0.9194,-0.9111,-0.9099,-0.9097,-0.91,-0.9093,-0.9093,-0.9074,-0.9084,-0.9108,-0.911,-0.9111,-0.9112,0,-0.9401,-0.9411,-0.9326,-0.9312,-0.9307,-0.9246,-0.9234,-0.9186,-0.9187,-0.9121,-0.9106,-0.9108,-0.9051,-0.9058,-0.8993,-0.8998,-0.8894,-0.8909,-0.8904,-0.8907,-0.8836,-0.8842,-0.8605,-0.8575,-0.8787,-0.8785,-0.8783,0,-0.9296,-0.924,-0.9221,-0.919,-0.9177,-0.9126,-0.9097,-0.9116,-0.9083,-0.9049,-0.9004,-0.8952,-0.891,-0.8817,-0.8811,-0.8762,-0.8775,-0.8695,-0.8767,-0.8763,-0.8773,-0.8776,-0.877,-0.868,-0.8678,-0.8676,-0.8674,0,-0.9108,-0.9116,-0.9074,-0.9033,-0.8998,-0.8965,-0.8937,-0.8909,-0.8925,-0.8886,-0.8831,-0.8799,-0.8735,-0.8681,-0.8635,-0.8621,-0.8649,-0.8652,-0.8633,-0.8625,-0.8625,-0.8624,-0.8864,-0.8657,-0.8659,-0.866,-0.8661,-0.8662,-0.897,-0.8923,-0.8903,-0.8854,-0.8835,-0.8808,-0.8762,-0.8759,-0.8714,-0.8665,-0.8679,-0.8615,-0.8589,-0.8531,-0.8512,-0.8461,-0.849,-0.8462,-0.8455,-0.8448,-0.8439,-0.8634,-0.8452,-0.8453,-0.8453,-0.8454,-0.8454,0,-0.8784,-0.8774,-0.8729,-0.8689,-0.8651,-0.8685,-0.8655,-0.8619,-0.8564,-0.8539,-0.8498,-0.8433,-0.8382,-0.8372,-0.8323,-0.8284,-0.8296,-0.827,-0.8272,-0.8269,-0.8416,-0.8438,-0.8261,-0.8261,-0.8261,-0.8261,-0.8261,-0.8261,-0.8682,-0.8604,-0.861,-0.8521,-0.8511,-0.8451,-0.8431,-0.8406,-0.8386,-0.8313,-0.8272,-0.8267,-0.8247,-0.8197,-0.8151,-0.8149,-0.8129,-0.8098,-0.8101,-0.8239,-0.8258,-0.8276,-0.8297,-0.8093,-0.8093,-0.7957,-0.7956,-0.7955]}]]